Airfield :
LOGIN :

Register | Disclaimer

   EN    FR    IT 

 










Legend :    VFR   Marginal VFR   IFR   Intensive IFR   Very Intensive IFR
Visi :
Ceiling :
>= 8 km
>= 3000ft
5 to 8 km
1000 to 3000 ft
1500m to 5 km
500 to 1000 ft
800 to 1500m
200 to 500 ft
< 800m
< 200 ft
Symbols :   Thunderstorms  Fog  Heavy snow  Heavy precipitations  Wind > 20 kt
SIGMETs :     Misc.  Thunderstorms  Icing  Turbulence  Mountain Waves  Volcanic Ashes







- Airport Elevation : 915 ft
- IATA code : LUG


LSZA - Lugano

CURRENT METAR :
  • 170050Z AUTO VRB03KT 9999 FEW080 19/17 Q1016

EXPIRED METARs :
  • 170020Z AUTO 02001KT 9999 BKN070 20/17 Q1016
  • 162350Z AUTO 00000KT 9999 OVC070 21/17 Q1016
  • 162320Z AUTO 01002KT 9999 OVC070 21/18 Q1017
  • 162250Z AUTO 34001KT 9999 BKN070 BKN090 20/17 Q1017
  • 162220Z AUTO 01003KT 9999 BKN090 20/17 Q1017

Expired Forecast.
ATIS : +41 22 417 40 88
No reported NOTAMs for that airfield.



MET'MAP, your aeronautical weather chart ! - Copyright ORBIFLY December 2007 - Disclaimer

ORBIFLY MET'MAP TEAM :

Programming & Development : Alexandra Zaïnal
Concept & Development : Baudouin d'Aumeries
Co-Development & Prog : Marc-Olivier Méhu
Technical & hardware support : Manuel Goepfert

Contact : metmap@orbifly.com




SOURCES & CREDITS :

   NOAA